logo
App data

Assassin's Creed Freedom Cry

Play as Adewale, an ex-slave turned Assassin fighting for freedom with the help of his own Pirate crew.
Store | Hub | SteamDB | Site
Developer: Ubisoft Montreal Publisher: Ubisoft
Genre: Action, Adventure
Languages: English, French, Italian, German, Spanish - Spain, Czech, Danish, Dutch, Finnish, Norwegian, Polish, Portuguese, Portuguese - Brazil, Russian, Swedish
Tags: Action (184), Adventure (163), Assassin (125), Open World (114), Pirates (112), Stealth (96), Singleplayer (76), Parkour (64), Third Person (55), Historical (51), Story Rich (33), Atmospheric (28), RPG (21), Naval (12), Sailing (9), Sci-fi (7), Gore (7), Great Soundtrack (6), Swordplay (6), Controller (6)
Category: Single-player
Release date: Feb 25, 2014
Price: $14.99
Old userscore: 76% Owners: 200,000 .. 500,000
Followers: 20,885
Peak concurrent players yesterday: 17
YouTube stats: 98,404 views and 619 comments for top 50 videos uploaded last week, 5 new videos uploaded yesterday.
Playtime total: 04:27 (average) 05:51 (median)

Steam Spy is still in beta, so expect major bugs.

Owners data:

Access restricted.

This feature is only available to users with special access rights. Sorry.

If you want to proceed, you need to register or log in first and then back Steam Spy on Patreon. Look for Indie or Pro pledge.

Don't forget to use the same email as on Steam Spy!

If you've recently backed Steam Spy on Patreon, please note, that it might take around 15 minutes for your access rights to sync. In most cases you'll need to re-login on Steam Spy too.

Audience in 2 weeks:

Access restricted.

This feature is only available to users with special access rights. Sorry.

If you want to proceed, you need to register or log in first and then back Steam Spy on Patreon. Look for Indie or Pro pledge.

Don't forget to use the same email as on Steam Spy!

If you've recently backed Steam Spy on Patreon, please note, that it might take around 15 minutes for your access rights to sync. In most cases you'll need to re-login on Steam Spy too.

Peak daily concurrent players:

CCU data courtesy of SteamDB. Used with permission.

Hourly concurrent players:

Followers over time

Access restricted.

This feature is only available to users with special access rights. Sorry.

If you want to proceed, you need to register or log in first and then back Steam Spy on Patreon. Look for Indie or Pro pledge.

Don't forget to use the same email as on Steam Spy!

If you've recently backed Steam Spy on Patreon, please note, that it might take around 15 minutes for your access rights to sync. In most cases you'll need to re-login on Steam Spy too.

Views for top 50 videos on YouTube for this game:

Games similar to this one:

# Game Release date
Price
Score rank
(Userscore / Metascore)
Owners
Players
Playtime (Median)
1 Red Orchestra: Ostfront 41-45 Mar 14, 2006 $4.99N/A (N/A/81%)500,000 .. 1,000,0000%00:00 (00:00)
2 Disciples II: Rise of the Elves Jul 6, 2006 $6.99N/A (N/A/80%)50,000 .. 100,0000%00:00 (00:00)
3 Cossacks: Back to War Nov 1, 2002 $4.99N/A (N/A/60%)200,000 .. 500,0007.14%02:32 (00:50)
4 The Longest Journey Nov 17, 2000 $9.99N/A (N/A/91%)200,000 .. 500,0000%00:00 (00:00)
5 Just Cause Sep 22, 2006 $6.99N/A (N/A/75%)1,000,000 .. 2,000,0000%00:00 (00:00)
6 X-Blades Feb 10, 2009 $9.99N/A (N/A/54%)500,000 .. 1,000,0000%00:00 (00:00)
7 Railroad Tycoon 3 Oct 23, 2003 $9.99N/A (N/A/80%)200,000 .. 500,0000%00:00 (00:00)
8 Penguins Arena: Sedna's World Dec 18, 2008 $5.99N/A (N/A)100,000 .. 200,0000%00:00 (00:00)
9 Tom Clancy's Rainbow Six Vegas Dec 12, 2006 $9.99N/A (N/A/85%)100,000 .. 200,0000%00:00 (00:00)
10 Brothers in Arms: Hell's Highway Oct 8, 2008 $9.99N/A (N/A/79%)100,000 .. 200,0000%00:00 (00:00)
11 Oddworld: Munch's Oddysee Dec 20, 2010 $4.99N/A (N/A)200,000 .. 500,0000%00:00 (00:00)
12 Oddworld: Stranger's Wrath HD Dec 20, 2010 $9.99N/A (N/A)200,000 .. 500,0000%00:00 (00:00)
13 Red Faction Sep 18, 2001 $9.99N/A (N/A/78%)500,000 .. 1,000,0000%00:00 (00:00)
14 Hunted: The Demon’s Forge May 30, 2011 $4.99N/A (N/A/61%)200,000 .. 500,0000%00:00 (00:00)
15 Knights of Honor May 10, 2005 $9.99N/A (N/A/77%)200,000 .. 500,0000%00:00 (00:00)
16 Operation Flashpoint: Red River Jul 1, 1989 N/AN/A (N/A/67%)500,000 .. 1,000,0000%00:00 (00:00)
17 Lost Planet 2 Oct 15, 2010 $19.99N/A (N/A/63%)100,000 .. 200,0000%00:00 (00:00)
18 Command & Conquer 4: Tiberian Twilight Mar 16, 2010 N/AN/A (N/A/64%)200,000 .. 500,0000%00:00 (00:00)
19 Aliens: Colonial Marines Collection Jun 19, 1983 $29.99N/A (N/A/45%)200,000 .. 500,0000%00:00 (00:00)
20 Red Faction: Armageddon Jun 6, 2011 $19.99N/A (N/A/75%)1,000,000 .. 2,000,0000%00:00 (00:00)
21 The First Templar - Steam Special Edition May 12, 2011 $9.99N/A (N/A/57%)100,000 .. 200,0000%00:00 (00:00)
22 Jagged Alliance - Back in Action Feb 8, 2012 $19.99N/A (N/A/62%)200,000 .. 500,0000%00:00 (00:00)
23 Majesty 2 Collection Apr 19, 2011 N/AN/A (N/A)200,000 .. 500,0000%00:00 (00:00)
24 DETOUR May 16, 2011 $1.99N/A (N/A)200,000 .. 500,0000%00:00 (00:00)
25 Section 8: Prejudice May 4, 2011 N/AN/A (N/A/77%)500,000 .. 1,000,0000%00:00 (00:00)
26 Frozen Synapse May 26, 2011 $5.99N/A (N/A/85%)500,000 .. 1,000,0000%00:00 (00:00)
27 Renegade Ops Oct 26, 2011 $15N/A (N/A/76%)500,000 .. 1,000,0000%00:00 (00:00)
28 Memoir '44 Online Oct 12, 2011 FreeN/A (N/A)200,000 .. 500,0000%00:00 (00:00)
29 Sins of a Solar Empire: Trinity Feb 9, 2010 $19.99N/A (N/A/87%)100,000 .. 200,0000%00:00 (00:00)
30 Warlock - Master of the Arcane May 8, 2012 $24.99N/A (N/A/71%)500,000 .. 1,000,0000%00:00 (00:00)
31 Serious Sam 2 Oct 11, 2005 $9.99N/A (N/A/74%)1,000,000 .. 2,000,0000%00:00 (00:00)
32 Omerta - City of Gangsters Jan 31, 2013 $14.99N/A (N/A)100,000 .. 200,0000%00:00 (00:00)
33 Blades of Time Apr 20, 2012 $9.99N/A (N/A/63%)200,000 .. 500,0000%00:00 (00:00)
34 Viking: Battle for Asgard Oct 17, 2012 $14.99N/A (N/A)500,000 .. 1,000,0000%00:00 (00:00)
35 Kung Fu Strike - The Warrior's Rise Jul 24, 2012 $9.99N/A (N/A)100,000 .. 200,0000%00:00 (00:00)
36 Inversion Jul 26, 2012 $9.99N/A (N/A)20,000 .. 50,0000%00:00 (00:00)
37 Tom Clancy's Ghost Recon: Future Soldier Jun 26, 2012 $19.99N/A (N/A/71%)200,000 .. 500,0000%00:00 (00:00)
38 Air Conflicts: Pacific Carriers Sep 21, 2012 $9.99N/A (N/A)50,000 .. 100,0000%00:00 (00:00)
39 Tiny Troopers Aug 24, 2012 $0.49N/A (N/A/57%)100,000 .. 200,0000%00:00 (00:00)
40 Unity of Command: Stalingrad Campaign Oct 17, 2012 $9.99N/A (N/A/84%)100,000 .. 200,0000%00:00 (00:00)
41 StarDrive Apr 26, 2013 $29.99N/A (N/A/61%)200,000 .. 500,0000%00:00 (00:00)
42 Xenonauts Jun 16, 2014 $24.99N/A (N/A/77%)500,000 .. 1,000,0000%00:00 (00:00)
43 Tomb Raider II Nov 28, 2012 $6.99N/A (N/A)200,000 .. 500,0000%00:00 (00:00)
44 Tomb Raider III Nov 28, 2012 $6.99N/A (N/A)200,000 .. 500,0001.2%04:30 (01:30)
45 Ironclad Tactics Sep 18, 2013 $14.99N/A (N/A/69%)50,000 .. 100,0000%00:00 (00:00)
46 Hegemony Rome: The Rise of Caesar May 15, 2014 $14.99N/A (N/A)50,000 .. 100,0000%00:00 (00:00)
47 Kingdom Wars Apr 1, 2013 N/AN/A (N/A)500,000 .. 1,000,0000%00:00 (00:00)
48 God Mode Apr 19, 2013 N/AN/A (N/A/58%)200,000 .. 500,0000%00:00 (00:00)
49 Fallen Enchantress: Legendary Heroes May 22, 2013 $9.99N/A (N/A/80%)200,000 .. 500,0000%00:00 (00:00)
50 War for the Overworld Apr 2, 2015 $29.99N/A (N/A)200,000 .. 500,0002.63%00:34 (00:11)
51 Eador. Masters of the Broken World Apr 19, 2013 $19.99N/A (N/A/74%)500,000 .. 1,000,0000%00:00 (00:00)
52 Blitzkrieg 3 Jun 2, 2017 $9.99N/A (N/A/68%)100,000 .. 200,0000%00:00 (00:00)
53 Dust: An Elysian Tail May 24, 2013 $14.99N/A (N/A)1,000,000 .. 2,000,0000%00:00 (00:00)
54 Sid Meier’s Ace Patrol: Pacific Skies Nov 5, 2013 $4.99N/A (N/A)200,000 .. 500,0000%00:00 (00:00)
55 MASSIVE CHALICE Jun 1, 2015 $19.99N/A (N/A/73%)50,000 .. 100,0000%00:00 (00:00)
56 Legends of Eisenwald Jul 2, 2015 $19.99N/A (N/A/71%)100,000 .. 200,0000%00:00 (00:00)
57 Megabyte Punch Oct 15, 2013 $14.99N/A (N/A/69%)200,000 .. 500,0000%00:00 (00:00)
58 Scribblenauts Unmasked: A DC Comics Adventure Sep 24, 2013 $19.99N/A (N/A/68%)200,000 .. 500,0000%00:00 (00:00)
59 Anomaly Korea Nov 6, 2013 $4.99N/A (N/A)200,000 .. 500,0000%00:00 (00:00)
60 Kingdom Wars 2: Battles Mar 4, 2016 N/AN/A (N/A)50,000 .. 100,0000%00:00 (00:00)
61 WARMACHINE: Tactics Nov 20, 2014 $19.99N/A (N/A)100,000 .. 200,0000%00:00 (00:00)
62 Duskers May 18, 2016 $19.99N/A (N/A/83%)100,000 .. 200,0000%00:00 (00:00)
63 Rebuild 3: Gangs of Deadsville May 29, 2015 $9.99N/A (N/A/75%)200,000 .. 500,0000%00:00 (00:00)
64 Blood Knights Nov 13, 2013 $9.99N/A (N/A)50,000 .. 100,0000%00:00 (00:00)
65 Savant - Ascent Dec 4, 2013 $1.99N/A (N/A)200,000 .. 500,0000%00:00 (00:00)
66 The Last Tinker: City of Colors May 12, 2014 $9.99N/A (N/A/72%)100,000 .. 200,0000%00:00 (00:00)
67 Assassin’s Creed Liberation HD Jan 15, 2014 $19.99N/A (N/A)200,000 .. 500,0000%00:00 (00:00)
68 The Red Solstice Jul 9, 2015 $9.99N/A (N/A/74%)1,000,000 .. 2,000,0000%00:00 (00:00)
69 Worlds of Magic Mar 19, 2015 $24.99N/A (N/A/52%)20,000 .. 50,0000%00:00 (00:00)
70 Breach & Clear Mar 21, 2014 $14.99N/A (N/A)200,000 .. 500,0000%00:00 (00:00)
71 Batman: Arkham Origins Blackgate - Deluxe Edition Apr 1, 2014 $19.99N/A (N/A)200,000 .. 500,0000%00:00 (00:00)
72 Industry Giant 2 Aug 14, 2015 $9.99N/A (N/A)100,000 .. 200,0000%00:00 (00:00)
73 Serious Sam's Bogus Detour Jun 20, 2017 $14.99N/A (N/A/76%)50,000 .. 100,0000%00:00 (00:00)
74 Warhammer 40,000: Kill Team May 22, 2014 N/AN/A (N/A)50,000 .. 100,0000%00:00 (00:00)
75 Imperial Glory Apr 11, 2014 $4.99N/A (N/A/69%)100,000 .. 200,0000%00:00 (00:00)
76 Creeper World 3: Arc Eternal Mar 27, 2014 $14.99N/A (N/A)200,000 .. 500,0000%00:00 (00:00)
77 Castlevania: Lords of Shadow – Mirror of Fate HD Mar 27, 2014 $14.99N/A (N/A)100,000 .. 200,0000%00:00 (00:00)
78 House of the Dying Sun Nov 1, 2016 $19.99N/A (N/A/76%)100,000 .. 200,0000%00:00 (00:00)
79 Incoming Forces Sep 24, 2002 $2.99N/A (N/A/67%)200,000 .. 500,0000%00:00 (00:00)
80 Braveland Mar 17, 2014 $6.99N/A (N/A)5,000,000 .. 10,000,0000%00:00 (00:00)
81 Grey Goo Jan 23, 2015 $29.99N/A (N/A/77%)200,000 .. 500,0000%00:00 (00:00)
82 Hive Jump Jan 18, 2017 $19.99N/A (N/A)100,000 .. 200,0000%00:00 (00:00)
83 MIND: Path to Thalamus Enhanced Edition Aug 5, 2014 $11.99N/A (N/A/75%)100,000 .. 200,0000%00:00 (00:00)
84 Total Annihilation Dec 18, 2015 $4.99N/A (N/A/86%)100,000 .. 200,0000%00:00 (00:00)
85 Commando Jack Aug 22, 2014 $7.99N/A (N/A)200,000 .. 500,0000%00:00 (00:00)
86 Battlezone 98 Redux Apr 18, 2016 $19.99N/A (N/A/75%)50,000 .. 100,0000%00:00 (00:00)
87 Battle Islands Aug 6, 2014 FreeN/A (N/A)500,000 .. 1,000,0000%00:00 (00:00)
88 Crookz - The Big Heist Aug 25, 2015 $9.99N/A (N/A/74%)20,000 .. 50,0000%00:00 (00:00)
89 Geometry Wars 3: Dimensions Evolved Nov 25, 2014 $14.99N/A (N/A)100,000 .. 200,0000%00:00 (00:00)
90 Oddworld: New 'n' Tasty Feb 25, 2015 $19.99N/A (N/A/86%)200,000 .. 500,0000%00:00 (00:00)
91 Battle of Empires : 1914-1918 Jul 22, 2015 $8.99N/A (N/A)50,000 .. 100,0000%00:00 (00:00)
92 Strife: Veteran Edition Dec 12, 2014 $9.99N/A (N/A)50,000 .. 100,0000%00:00 (00:00)
93 Space Hulk: Ascension Nov 12, 2014 N/AN/A (N/A/72%)50,000 .. 100,0000%00:00 (00:00)
94 Convoy Apr 21, 2015 $14.99N/A (N/A/72%)100,000 .. 200,0000%00:00 (00:00)
95 Odallus: The Dark Call Jul 15, 2015 $9.99N/A (N/A/80%)50,000 .. 100,0000%00:00 (00:00)
96 Ascension: Deckbuilding Game Dec 16, 2014 $12.99N/A (N/A)100,000 .. 200,0000%00:00 (00:00)
97 UNLOVED Sep 29, 2016 $4.99N/A (N/A)100,000 .. 200,0000%00:00 (00:00)
98 Might & Magic Heroes VII Sep 29, 2015 $29.99N/A (N/A)200,000 .. 500,0000%00:00 (00:00)
99 The Magic Circle Jul 9, 2015 $19.99N/A (N/A/79%)100,000 .. 200,0000%00:00 (00:00)
100 Halo: Spartan Strike Apr 16, 2015 $2.99N/A (N/A)100,000 .. 200,0000%00:00 (00:00)
101 Impossible Creatures Steam Edition Nov 11, 2015 $2.49N/A (N/A/72%)100,000 .. 200,00012.5%05:06 (01:42)
102 The Warlock of Firetop Mountain Aug 30, 2016 $19.99N/A (N/A/70%)100,000 .. 200,0000%00:00 (00:00)
103 Shadow Warrior 2 Oct 13, 2016 $39.99N/A (N/A/78%)500,000 .. 1,000,0000%00:00 (00:00)
104 WASTED Jun 7, 2016 $12.99N/A (N/A/68%)100,000 .. 200,0000%00:00 (00:00)
105 Out There: Ω Edition Apr 2, 2015 $14.99N/A (N/A)100,000 .. 200,0000%00:00 (00:00)
106 I am Weapon: Revival Jul 27, 2016 $15.99N/A (N/A)50,000 .. 100,0000%00:00 (00:00)
107 Zombie Vikings Dec 7, 2015 $11.99N/A (N/A/74%)50,000 .. 100,0000%00:00 (00:00)
108 Oceanhorn: Monster of Uncharted Seas Mar 17, 2015 $14.99N/A (N/A/74%)200,000 .. 500,0000%00:00 (00:00)
109 Zombie Kill of the Week - Reborn Mar 13, 2015 $6.99N/A (N/A)50,000 .. 100,0000%00:00 (00:00)
110 Particula Feb 2, 2015 $0.99N/A (N/A)500,000 .. 1,000,0000%00:00 (00:00)
111 Sun Blast: Star Fighter Apr 2, 2015 $1.99N/A (N/A)100,000 .. 200,0000%00:00 (00:00)
112 SHOGUN: Total War - Collection Jun 25, 2015 $9.99N/A (N/A)50,000 .. 100,0000%00:00 (00:00)
113 Medieval: Total War - Collection Aug 20, 2002 $9.99N/A (N/A)200,000 .. 500,0000%00:00 (00:00)
114 Marble Age Mar 4, 2015 $5.99N/A (N/A)100,000 .. 200,0000%00:00 (00:00)
115 Train Valley Sep 16, 2015 $9.99N/A (N/A/69%)500,000 .. 1,000,0000%00:00 (00:00)
116 The Deadly Tower of Monsters Jan 19, 2016 $14.99N/A (N/A/73%)50,000 .. 100,0000%00:00 (00:00)
117 Uncanny Valley Apr 23, 2015 $9.99N/A (N/A/67%)50,000 .. 100,0000%00:00 (00:00)
118 Assassin’s Creed Chronicles: Russia Feb 9, 2016 $9.99N/A (N/A)100,000 .. 200,0000%00:00 (00:00)
119 The Long Journey Home May 30, 2017 $19.99N/A (N/A/68%)50,000 .. 100,0000%00:00 (00:00)
120 Slain: Back from Hell Mar 24, 2016 $12.99N/A (N/A/74%)100,000 .. 200,0000%00:00 (00:00)
121 Letter Quest: Grimm's Journey Remastered Aug 5, 2015 $7.99N/A (N/A)20,000 .. 50,0000%00:00 (00:00)
122 Police Tactics: Imperio Sep 7, 2016 $24.99N/A (N/A)20,000 .. 50,0000%00:00 (00:00)
123 Tap Tap Infinity Jun 26, 2015 FreeN/A (N/A)200,000 .. 500,0000%00:00 (00:00)
124 Anima: Gate of Memories Jun 2, 2016 $19.99N/A (N/A)100,000 .. 200,0000%00:00 (00:00)
125 John Wick Chronicles Feb 9, 2017 N/AN/A (N/A/57%)0 .. 20,0000%00:00 (00:00)
126 Shadow Complex Remastered May 3, 2016 $14.99N/A (N/A)50,000 .. 100,0000%00:00 (00:00)
127 Alien Attack Jun 21, 2016 $1.99N/A (N/A)20,000 .. 50,0000%00:00 (00:00)
128 Call of Duty: Modern Warfare Remastered Jul 27, 2017 $39.99N/A (N/A)200,000 .. 500,0000%00:00 (00:00)
129 Battlevoid: Harbinger Feb 24, 2016 $9.99N/A (N/A)100,000 .. 200,0000%00:00 (00:00)
130 War of Beach Oct 15, 2015 FreeN/A (N/A)100,000 .. 200,0000%00:00 (00:00)
131 Epistory - Typing Chronicles Mar 30, 2016 $14.99N/A (N/A/74%)200,000 .. 500,0002.33%01:54 (00:38)
132 Concrete Jungle Sep 23, 2015 $6.99N/A (N/A/76%)100,000 .. 200,0000%00:00 (00:00)
133 Normality Oct 9, 2015 $2.99N/A (N/A)200,000 .. 500,0000%00:00 (00:00)
134 POSTAL Redux May 20, 2016 $1.07N/A (N/A/54%)100,000 .. 200,0000%00:00 (00:00)
135 Turok 2: Seeds of Evil Dec 10, 1998 $19.99N/A (N/A)50,000 .. 100,0000%00:00 (00:00)
136 Hard Reset Redux Jun 3, 2016 $19.99N/A (N/A/73%)100,000 .. 200,0000%00:00 (00:00)
137 12 is Better Than 6 Nov 20, 2015 $9.99N/A (N/A/74%)500,000 .. 1,000,0000%00:00 (00:00)
138 TY the Tasmanian Tiger Dec 12, 2016 $14.99N/A (N/A)100,000 .. 200,0000%00:00 (00:00)
139 Pang Adventures Apr 18, 2016 $9.99N/A (N/A)20,000 .. 50,0000%00:00 (00:00)
140 Age of Steel: Recharge Jan 6, 2016 $6.99N/A (N/A)100,000 .. 200,0000%00:00 (00:00)
141 Deadlight: Director's Cut Jun 21, 2016 $11.99N/A (N/A)100,000 .. 200,0000%00:00 (00:00)
142 Seraph Sep 20, 2016 $12.99N/A (N/A/80%)50,000 .. 100,0000%00:00 (00:00)
143 DEAD RISING Sep 12, 2016 $19.99N/A (N/A)200,000 .. 500,0000%00:00 (00:00)
144 Hitman GO: Definitive Edition Feb 23, 2016 $7.99N/A (N/A/72%)200,000 .. 500,0000%00:00 (00:00)
145 Mushroom Wars Apr 7, 2016 $9.99N/A (N/A/80%)100,000 .. 200,0008.33%00:39 (00:13)
146 Marvel: Ultimate Alliance Jul 26, 2016 N/AN/A (N/A)20,000 .. 50,0000%00:00 (00:00)
147 Dead6hot Feb 1, 2016 $0.99N/A (N/A)200,000 .. 500,0000%00:00 (00:00)
148 One Troll Army May 20, 2016 FreeN/A (N/A)200,000 .. 500,0000%00:00 (00:00)
149 Survival Zombies The Inverted Evolution May 8, 2017 $4.99N/A (N/A)50,000 .. 100,0000%00:00 (00:00)
150 Diluvion: Resubmerged Feb 2, 2017 $19.99N/A (N/A/66%)100,000 .. 200,0000%00:00 (00:00)
151 IS Defense Apr 19, 2016 $5.99N/A (N/A/50%)50,000 .. 100,0000%00:00 (00:00)
152 Spell Fighter VR Mar 1, 2016 FreeN/A (N/A)100,000 .. 200,0000%00:00 (00:00)
153 Zombillie Apr 29, 2016 $4.99N/A (N/A)50,000 .. 100,0000%00:00 (00:00)
154 Song of the Deep Jul 12, 2016 $14.99N/A (N/A/71%)50,000 .. 100,0000%00:00 (00:00)
155 Vanquish May 25, 2017 $19.99N/A (N/A/78%)500,000 .. 1,000,0002.5%01:45 (00:35)
156 Roll'd Apr 14, 2016 $0.99N/A (N/A)50,000 .. 100,0000%00:00 (00:00)
157 Predynastic Egypt Oct 10, 2016 $9.99N/A (N/A)100,000 .. 200,0000%00:00 (00:00)
158 STANDBY Jan 6, 2017 $2.99N/A (N/A)20,000 .. 50,0000%00:00 (00:00)
159 Caesar 3 May 30, 1999 $5.99N/A (N/A)200,000 .. 500,0000%00:00 (00:00)
160 Asura: Vengeance Edition Apr 13, 2017 $9.99N/A (N/A)50,000 .. 100,0000%00:00 (00:00)
161 Mages of Mystralia May 18, 2017 $19.99N/A (N/A/74%)100,000 .. 200,0000%00:00 (00:00)
162 Wonder Boy: The Dragon's Trap Jun 8, 2017 $19.99N/A (N/A)100,000 .. 200,0000%00:00 (00:00)
163 Dead Rising 4 Mar 14, 2017 $29.99N/A (N/A/74%)200,000 .. 500,0000%00:00 (00:00)
164 Serious Sam VR: The First Encounter Mar 30, 2017 $39.99N/A (N/A)20,000 .. 50,0000%00:00 (00:00)
165 Serious Sam Fusion 2017 (beta) tba - Add to your Wishlist! $14.99N/A (N/A)0 .. 20,0000.48%04:56 (01:38)
166 Pharaoh + Cleopatra Oct 31, 1999 $9.99N/A (N/A)200,000 .. 500,0000%00:00 (00:00)
167 Sudden Strike Gold Jan 24, 2001 $5.99N/A (N/A)50,000 .. 100,0000%00:00 (00:00)
168 Dies irae ~Amantes amentes~ Jun 2, 2017 FreeN/A (N/A)50,000 .. 100,0000%00:00 (00:00)

Tags over time:

Access restricted.

This feature is only available to users with special access rights. Sorry.

If you want to proceed, you need to register or log in first and then back Steam Spy on Patreon. Look for Indie or Pro pledge.

Don't forget to use the same email as on Steam Spy!

If you've recently backed Steam Spy on Patreon, please note, that it might take around 15 minutes for your access rights to sync. In most cases you'll need to re-login on Steam Spy too.

Owners of this game also own:

Access restricted.

This feature is only available to users with special access rights. Sorry.

If you want to proceed, you need to register or log in first and then back Steam Spy on Patreon. Look for Indie or Pro pledge.

Don't forget to use the same email as on Steam Spy!

If you've recently backed Steam Spy on Patreon, please note, that it might take around 15 minutes for your access rights to sync. In most cases you'll need to re-login on Steam Spy too.

Playtime distribution:

Access restricted.

This feature is only available to users with special access rights. Sorry.

If you want to proceed, you need to register or log in first and then back Steam Spy on Patreon. Look for Indie or Pro pledge.

Don't forget to use the same email as on Steam Spy!

If you've recently backed Steam Spy on Patreon, please note, that it might take around 15 minutes for your access rights to sync. In most cases you'll need to re-login on Steam Spy too.

Playtime (2 weeks):

Access restricted.

This feature is only available to users with special access rights. Sorry.

If you want to proceed, you need to register or log in first and then back Steam Spy on Patreon. Look for Indie or Pro pledge.

Don't forget to use the same email as on Steam Spy!

If you've recently backed Steam Spy on Patreon, please note, that it might take around 15 minutes for your access rights to sync. In most cases you'll need to re-login on Steam Spy too.

User reviews:

Login required.

Please register or log in to see this information.